Regional Weather Roundup
Issued by NWS

Home | Current Version | Previous Version | Text Only | Print | Product List | Glossary Off
Versions: 1 2 3 4 5 6 7 8 9 10 11 12 13 14 15 16 17 18 19 20 21 22 23 24 25 26 27 28 29 30 31 32 33 34 35 36 37 38 39 40 41 42 43 44 45 46 47 48 49 50

000
ASUS43 KDTX 041301
RWRMI
MICHIGAN HOURLY REGIONAL WEATHER ROUNDUP
NATIONAL WEATHER SERVICE DETROIT/PONTIAC MI
900 AM EDT TUE AUG 04 2015

NOTE: "FAIR" INDICATES FEW OR NO CLOUDS BELOW 12,000 FEET WITH NO
SIGNIFICANT WEATHER AND/OR OBSTRUCTION TO VISIBILITY.

MIZ047>049-052>055-059>063-066>070-074>076-081>083-041400-
SOUTHEAST LOWER MICHIGAN

CITY           SKY/WX    TMP DP  RH WIND       PRES   REMARKS
ADRIAN         SUNNY     63  57  81 W3        29.95R
ALMA           SUNNY     66  60  81 SW6       29.90S
ANN ARBOR      SUNNY     67  58  72 MISG      29.93R
BAD AXE        MOSUNNY   64  60  85 SW6       29.89R
CARO           SUNNY     64  58  81 SW6       29.90R
DETROIT CITY   SUNNY     68  53  58 W6        29.92R
DETROIT        MOSUNNY   68  55  63 SW5       29.93S
FLINT          SUNNY     67  57  70 W6        29.91S
GROSSE ILE     SUNNY     68  55  64 W6        29.92R
HILLSDALE      SUNNY     67  59  76 W3        29.95R
HOWELL         MOSUNNY   66  57  73 W5        29.93R

CITY           SKY/WX    TMP DP  RH WIND       PRES   REMARKS
JACKSON        SUNNY     65  57  75 W7        29.94R
LAMBERTVILLE   SUNNY     69  55  60 CALM      29.95R
LANSING        SUNNY     68  58  70 W9        29.93R
LAPEER         FAIR      66  55  67 W6        29.91S
MASON          MOSUNNY   64  56  75 W6        29.93S
MONROE         SUNNY     67  56  69 W6        29.93R
MT. CLEMENS    MOSUNNY   71  56  59 SW6       29.89S
PONTIAC        MOSUNNY   67  55  65 W7        29.91S
PORT HURON     SUNNY     66  57  72 SW3       29.91R
TRI CITIES     SUNNY     65  58  78 SW8       29.89S
MIDLAND        FAIR      65  58  78 SW3       29.88S
TROY           SUNNY     68  54  60 W6        29.93S
SAGINAW HB     SUNNY     64  59  82 SW3       29.89S
$$
MIZ043>046-050>051-056>058-064>065-071>073-077>080-041400-
SOUTHWEST LOWER MICHIGAN

CITY           SKY/WX    TMP DP  RH WIND       PRES   REMARKS
BATTLE CREEK     N/A    N/A N/A N/A MISG      29.95R
BENTON HARBOR  SUNNY     69  62  78 CALM      29.95R
BIG RAPIDS     PTSUNNY   67  60  77 W7        29.91R
COLDWATER      SUNNY     64  57  78 W6        29.96R
FREMONT        CLOUDY    64  62  94 CALM      29.92R
HOLLAND        SUNNY     71  62  73 W6        29.94R
GRAND RAPIDS   MOSUNNY   69  60  73 W9        29.93S
IONIA          FAIR      68  60  74 W9        29.92R
KALAMAZOO      SUNNY     70  60  70 W5        29.95S
LUDINGTON      PTSUNNY   68  61  76 NW3       29.91R
MARSHALL       SUNNY     65  58  77 W3        29.94S
MOUNT PLEASANT SUNNY     68  60  74 W5        29.89R
MUSKEGON       PTSUNNY   72  60  66 W7        29.93R
SOUTH HAVEN    SUNNY     71  61  70 CALM      29.94S
$$
MIZ016>042-041400-
NORTHERN LOWER MICHIGAN

CITY           SKY/WX    TMP DP  RH WIND       PRES   REMARKS
ALPENA         LGT RAIN  59  57  93 SW6       29.86S FOG
BEAVER ISLAND  CLOUDY    61  57  87 NW7       29.87R
BELLAIRE       CLOUDY    64  60  87 W5        29.87R
CADILLAC       CLOUDY    62  59  90 W5        29.89S
CHARLEVOIX     CLOUDY    64  59  84 NW8       29.89S
FRANKFORT      CLOUDY    66  59  77 NW8       29.88S
GAYLORD        MOSUNNY   63  60  90 W5        29.87S
GRAYLING       CLOUDY    60  57  89 W7        29.88S
HARBOR SPRINGS MOSUNNY   63  58  84 NW3       29.86R
HOUGHTON LAKE  CLOUDY    63  57  81 W10       29.89R
MANISTEE       PTSUNNY   61  55  82 CALM      29.91R
OSCODA         CLOUDY    61  58  90 SW6       29.86S
PELLSTON       PTSUNNY   62  59  90 W7        29.86R
ROGERS CITY    PTSUNNY   60  58  92 SW7       29.85S
TRAVERSE CITY  PTSUNNY   66  59  78 W7        29.87R
$$
MIZ007>008-015-041400-
EASTERN UPPER MICHIGAN

CITY           SKY/WX    TMP DP  RH WIND       PRES   REMARKS
KINROSS        PTSUNNY   57  55  94 NW7       29.85R
MACKINAC ISLAN MOSUNNY   60  59  96 NW8       29.85R
NEWBERRY       CLOUDY    57  54  88 NW5       29.86S
S. S. MARIE    CLOUDY    60  55  83 W8        29.84R
MUNISING         N/A     62  54  74 N9        29.87S
$$
MIZ004>006-011>014-085-041400-
CENTRAL UPPER MICHIGAN

CITY           SKY/WX    TMP DP  RH WIND       PRES   REMARKS
ESCANABA       MOSUNNY   61  55  82 W5        29.88R
MENOMINEE      PTSUNNY   63  54  72 N7        29.89R
SAWYER-GWINN   PTSUNNY   57  54  88 NW5       29.89R
$$
MIZ001>003-009>011-084-041400-
WESTERN UPPER MICHIGAN

CITY           SKY/WX    TMP DP  RH WIND       PRES   REMARKS
IRON MOUNTAIN  CLOUDY    59  56  89 NW6       29.89R
HOUGHTON       PTSUNNY   59  54  83 NW6       29.88R
COPPER HARBOR    N/A     58  51  78 NE8       29.88R
IRONWOOD       PTSUNNY   59  57  94 NW10      29.90S
$$

ABBREVIATIONS USED IN REMARKS
   TC - TEMPERATURE IN CELSIUS
  WCI - WIND CHILL INDEX
   HX - HEAT INDEX
  VSB - VISIBILITY



USA.gov is the U.S. government's official web portal to all federal, state and local government web resources and services.